Location: Alpha Ridge Park
(39.3209°N, 76.9128°W)
Time: 13:31:50
(UTC-04:00)

Vanguard 2 Rocket - Pass Details

Date: 30 May 2019
Orbit: 555 x 3326 km, 32.9° (Epoch: 25 June)

Event Time Altitude Azimuth Distance (km) Brightness Sun altitude
Rises 04:54:05 0° 238° (WSW) 7,080 - -8.9°
Exits shadow 04:58:14 - 235° (SW) 6,296 10.5 -8.2°
Reaches altitude 10° 04:58:45 10° 235° (SW) 6,199 10.4 -8.1°
Maximum altitude 05:18:29 60° 162° (SSE) 3,434 9.7 -5.0°
Drops below altitude 10° 05:33:54 10° 88° (E) 4,993 11.8 -2.5°
Sets 05:37:11 0° 85° (E) 5,691 12.3 -2.0°
